Location: Atbuku
(36.4936°N, 30.4362°E)
Time: 23:33:52
(UTC+00:00)

Cosmos 1607 - Visible Passes

Search period start: 14 March 2026 00:00
Search period end: 24 March 2026 00:00
Orbit: 921 x 980 km, 65.0° (Epoch: 14 March)

Date Brightness Start Highest point End Pass type
(mag) Time Alt. Az. Time Alt. Az. Time Alt. Az.
14 Mar 4.4 17:47:29 10° NW 17:53:44 63° WSW 17:58:25 19° SSE visible
15 Mar 5.4 18:05:52 10° NW 18:11:32 35° WSW 18:17:14 10° S visible
16 Mar 4.0 16:36:15 10° NNW 16:42:33 64° ENE 16:48:53 10° SE visible
16 Mar 6.2 18:24:51 10° WNW 18:29:12 20° WSW 18:33:34 10° SSW visible
17 Mar 4.2 16:54:12 10° NNW 17:00:33 76° WSW 17:06:55 10° SSE visible
18 Mar 5.2 17:12:27 10° NW 17:18:23 43° WSW 17:24:21 10° S visible
19 Mar 6.2 17:31:11 10° WNW 17:36:06 24° WSW 17:41:02 10° SSW visible
20 Mar 6.8 17:51:13 10° W 17:53:40 12° WSW 17:56:08 10° SW visible
22 Mar 6.1 16:37:38 10° NW 16:42:59 29° WSW 16:48:20 10° SSW visible
23 Mar 6.8 16:57:00 10° WNW 17:00:36 16° WSW 17:04:13 10° SW visible
